Theta_e
333 339 347 350 350 350 351 350 349 349 349 350 350 350 348 348 348 349 349 349 348 347 345 343 341 340 340 339 337 336 335 334 336 338 341 347 351 350 349 349 349 348 351
334 340 346 349 351 351 351 350 349 349 349 349 349 348 347 346 344 344 345 345 344 343 341 339 337 336 336 336 334 330 331 329 332 334 337 344 347 347 346 345 347 350 349
333 341 346 348 350 350 350 350 349 348 349 349 348 347 346 344 343 342 341 341 340 339 338 336 333 332 331 328 326 326 327 327 330 333 338 344 346 346 345 344 344 346 349
333 341 344 345 349 350 350 349 350 350 350 349 348 347 345 341 337 338 338 338 338 338 335 331 328 327 324 324 324 324 325 328 328 331 338 340 340 346 344 343 343 343 345
333 339 343 344 349 350 350 350 350 350 350 347 347 344 340 339 337 336 336 335 335 333 330 327 325 323 323 322 321 320 321 322 322 333 337 340 341 344 343 342 340 340 341
333 338 342 345 349 350 350 350 349 349 349 346 342 339 337 337 335 332 332 331 330 328 326 324 324 323 322 321 319 319 318 318 323 329 334 337 339 340 340 339 337 337 338
332 337 343 343 347 348 348 348 346 344 342 340 339 338 338 336 333 330 329 328 327 325 324 324 323 321 320 319 317 316 314 314 321 325 329 333 334 334 335 335 333 334 334
332 337 340 337 339 341 343 344 341 341 339 340 339 338 337 333 330 328 327 326 325 324 325 324 321 320 318 316 314 312 310 309 316 320 324 328 330 330 330 330 330 330 330
333 335 337 341 339 334 338 337 338 337 338 339 339 337 334 331 328 326 325 324 324 324 322 321 320 318 315 313 310 308 307 306 310 314 317 323 324 327 326 327 327 327 327
331 332 334 337 339 340 340 331 332 335 335 336 335 333 329 327 327 326 324 324 323 321 320 319 317 315 313 310 306 304 302 303 306 308 312 316 319 323 324 323 323 324 325
325 329 332 334 336 337 337 333 328 330 331 331 330 326 323 325 323 322 321 324 322 319 317 316 314 311 308 306 303 300 300 302 303 306 309 312 316 319 320 321 322 323 324
321 324 327 330 332 334 332 333 332 331 331 331 331 328 325 323 322 320 318 321 320 317 314 312 308 303 299 302 300 299 301 301 301 303 306 308 312 315 318 319 322 323 323
321 322 323 326 329 330 330 330 331 332 331 330 330 327 323 319 318 317 318 318 317 312 311 307 302 301 301 301 301 300 300 300 301 301 303 306 310 313 315 319 321 322 321
318 320 322 323 325 327 329 328 329 328 329 328 326 323 319 317 316 315 315 315 314 311 307 302 302 301 300 299 299 299 299 300 301 301 304 306 309 313 318 320 320 321 322
314 317 319 321 323 324 325 325 326 325 325 325 323 320 318 315 313 312 313 312 310 307 303 301 301 299 299 298 298 298 298 298 299 301 306 305 311 315 317 319 320 322 321
312 314 317 318 320 322 322 323 323 323 322 322 320 318 316 314 311 310 310 308 305 303 301 300 299 299 298 298 297 297 297 298 299 299 304 308 309 315 316 318 320 320 318
311 312 313 315 318 319 320 322 321 321 320 318 317 316 313 311 309 307 307 304 302 300 300 299 298 298 297 297 297 296 297 297 298 299 301 307 310 311 313 315 319 316 315
310 310 312 312 314 316 318 319 319 319 317 316 316 314 312 309 307 306 304 302 300 299 298 298 297 296 297 296 296 295 296 297 297 299 300 304 308 309 308 309 311 310 306
309 309 309 311 311 314 316 317 318 317 316 315 314 312 310 308 305 304 303 301 299 297 297 297 296 297 296 295 295 295 295 295 295 296 298 302 303 304 304 298 297 298 301
309 309 309 309 309 311 313 315 315 314 313 314 312 310 309 306 304 303 301 301 298 297 296 296 296 296 296 295 291 293 294 294 295 296 298 298 298 297 297 295 296 296 297
307 307 306 306 307 308 309 310 311 310 310 310 311 308 307 305 304 302 301 300 297 296 296 296 296 294 294 294 293 292 292 293 293 295 296 296 294 294 294 294 295 295 295
307 307 306 305 305 306 307 309 309 309 309 308 309 307 306 304 303 301 300 299 297 296 296 295 295 294 294 294 294 293 290 290 291 292 294 293 292 292 292 291 292 292 294
306 307 306 305 304 304 305 306 306 307 305 305 306 305 304 303 301 300 300 299 297 297 296 296 295 295 293 292 295 296 291 292 290 290 291 292 291 291 292 291 291 291 292
303 304 304 304 304 303 303 303 303 301 301 302 303 303 303 302 301 300 299 299 298 296 296 296 296 296 297 292 291 291 292 295 292 286 290 290 291 290 291 291 291 290 291
302 302 302 301 302 302 301 302 302 301 302 303 302 301 301 300 300 300 299 298 297 296 296 296 294 295 296 296 293 290 290 291 292 293 288 287 290 290 291 291 290 290 290
300 299 299 298 299 300 300 300 300 300 300 301 301 299 299 299 297 298 298 298 297 296 295 295 295 294 294 295 295 293 292 290 290 291 291 289 288 289 290 290 289 290 290
Wind_Speed
11 13 14 15 14 14 13 13 13 12 11 11 12 13 12 11 11 10 10 11 13 13 13 10 8 7 8 8 8 8 8 8 9 10 10 11 13 14 14 13 9 12 11
13 15 14 14 14 13 13 12 12 12 13 12 13 14 12 10 8 8 9 10 10 10 10 7 6 6 6 7 7 7 7 7 8 8 5 10 11 13 13 14 14 12 11
14 15 15 13 13 12 12 12 12 12 13 14 13 14 14 11 9 6 6 6 7 7 7 7 7 7 7 6 6 6 6 6 7 6 3 6 10 11 13 13 12 13 14
14 14 15 11 13 13 13 12 12 13 13 13 13 13 14 9 5 5 5 6 8 7 7 7 7 7 7 7 8 8 7 7 8 4 3 4 6 11 11 12 14 13 11
14 13 12 11 13 14 13 13 12 13 12 14 13 9 8 8 7 6 8 8 8 8 7 7 8 8 8 8 9 9 8 8 6 2 6 4 4 11 12 12 12 13 12
14 13 10 9 13 14 14 12 12 12 14 13 8 7 7 7 7 7 8 8 8 8 8 8 9 8 8 9 9 9 9 8 2 6 6 7 9 9 12 12 11 10 11
14 13 12 8 10 11 13 15 15 10 5 3 5 7 9 9 9 8 8 8 9 8 9 9 9 9 9 9 9 10 9 8 6 6 6 6 7 9 9 11 9 10 11
14 13 12 10 9 10 9 11 7 9 12 9 10 10 10 10 10 10 10 10 10 10 11 10 9 9 9 9 9 10 9 5 5 6 6 6 7 8 8 8 8 9 10
13 12 12 13 11 8 8 11 10 11 10 9 10 10 10 10 10 10 10 10 10 11 11 11 10 10 10 9 10 10 10 7 6 5 4 4 6 7 7 8 8 9 9
12 13 14 14 14 14 12 8 9 10 11 10 9 9 9 8 7 7 7 9 11 10 10 10 10 9 10 10 10 9 8 5 6 5 4 5 4 6 7 7 7 8 9
12 14 14 15 15 15 14 12 10 9 9 10 10 9 10 9 10 10 7 9 10 10 10 9 9 10 10 10 9 6 1 3 4 3 3 5 4 5 5 6 7 9 9
17 17 15 15 16 15 11 12 13 11 11 9 12 13 10 10 9 8 8 8 10 10 10 9 9 8 4 3 4 3 3 3 3 3 4 5 3 3 4 5 7 9 9
17 14 17 16 15 15 12 10 8 8 9 9 13 12 10 8 7 8 7 7 8 8 7 7 7 4 4 3 3 3 3 2 2 2 4 3 1 3 4 6 8 9 8
16 17 17 17 16 16 10 10 11 10 10 10 12 14 9 7 8 8 7 9 8 7 7 6 4 5 5 4 4 4 3 2 2 2 4 5 0 4 7 8 8 9 10
16 16 17 18 18 16 16 12 12 12 11 12 11 13 11 11 10 10 9 8 7 6 7 7 6 5 5 4 4 4 3 3 3 2 3 5 4 5 7 9 10 10 14
16 18 17 19 19 17 16 17 13 12 13 13 12 13 16 11 10 10 10 9 9 8 6 5 5 5 5 4 4 4 4 3 3 3 2 4 7 2 7 8 9 13 13
16 17 19 20 19 20 19 17 13 12 12 12 12 17 17 15 14 13 11 9 8 8 9 7 7 5 5 4 5 4 3 4 4 5 3 3 5 9 4 7 9 11 11
14 16 17 14 20 22 20 15 13 13 12 11 12 12 16 16 15 13 10 10 10 8 7 8 8 7 6 5 5 4 4 4 5 5 5 5 4 6 9 12 12 13 8
13 14 15 17 20 21 20 15 16 16 13 13 12 13 17 16 16 13 11 10 11 10 9 8 7 8 7 7 5 4 4 4 5 4 6 6 6 5 5 9 11 6 6
10 11 13 12 16 16 12 12 11 12 12 13 13 13 17 14 17 14 11 12 12 10 10 10 10 7 7 7 6 6 5 4 4 4 6 6 6 6 5 4 3 5 6
8 9 11 12 13 12 12 12 12 14 12 13 13 19 20 17 19 16 12 13 13 12 13 14 10 12 7 9 7 5 3 3 4 4 5 6 7 5 4 3 2 2 3
8 7 9 11 11 12 10 9 10 10 11 12 12 15 19 20 19 17 16 14 15 12 14 15 14 10 6 11 6 6 5 3 4 5 5 6 7 5 5 4 3 4 4
12 13 9 8 11 12 13 9 10 9 9 10 13 12 15 19 19 18 18 15 15 13 13 15 15 15 10 10 10 4 5 6 7 5 8 7 8 5 5 5 4 5 5
11 12 11 9 8 8 11 11 15 12 13 11 11 11 12 19 20 19 19 17 16 13 14 14 13 12 10 10 7 7 4 2 6 6 6 9 8 7 6 5 5 5 6
12 11 10 10 8 6 8 13 11 14 11 10 9 13 16 15 18 18 19 20 19 15 15 15 15 15 11 10 9 6 7 4 2 4 6 8 8 8 6 5 5 6 6
17 18 17 17 12 8 7 10 14 15 14 11 10 10 10 10 11 17 18 17 17 16 17 15 16 17 13 10 10 9 9 7 7 5 4 8 9 8 8 6 6 6 6
Wind_Direction
195 169 173 180 175 171 167 158 150 146 145 146 141 132 117 107 87 91 100 100 92 91 89 78 70 71 72 72 63 56 55 51 55 52 53 54 88 76 61 38 32 62 55
162 173 173 177 176 169 164 158 154 155 153 151 145 129 114 109 97 95 91 97 101 97 94 105 93 83 82 74 64 54 58 56 58 53 36 94 79 76 66 54 36 56 60
168 171 178 180 177 171 164 162 162 169 167 163 154 144 138 128 117 119 131 117 104 108 111 96 96 89 80 70 62 59 60 58 55 54 17 83 85 84 72 64 55 45 49
169 172 177 178 180 177 173 177 177 181 174 158 150 145 125 130 136 159 135 144 122 121 114 99 92 84 76 69 63 59 60 59 49 343 96 81 87 89 81 75 66 53 46
174 177 177 175 180 179 181 188 194 198 165 159 158 156 121 118 145 157 147 135 131 125 113 106 99 90 84 72 70 66 65 61 49 49 71 70 94 84 84 73 72 64 49
177 181 155 182 183 182 182 184 170 164 153 157 139 121 129 152 160 158 150 144 134 125 117 114 103 97 88 78 75 70 63 55 19 69 60 57 79 71 77 73 63 61 53
179 182 178 184 184 174 174 177 179 178 137 126 159 157 165 164 173 169 160 150 137 135 128 117 109 103 93 86 82 75 64 58 70 72 65 57 57 48 58 64 56 50 61
185 182 186 187 183 179 194 195 166 197 203 197 180 177 178 183 182 174 163 159 151 144 132 126 120 112 103 93 88 80 73 52 79 76 67 64 33 61 57 62 62 59 58
188 189 194 196 194 192 191 170 179 210 213 209 181 182 191 185 187 179 169 165 156 145 141 133 125 118 107 98 87 77 71 53 81 68 68 57 26 61 59 62 65 63 64
195 199 199 203 203 203 198 190 192 199 202 196 175 182 165 165 178 175 167 171 156 150 140 134 127 114 106 98 90 87 84 73 71 73 62 50 30 71 69 65 71 75 71
209 209 205 204 205 207 207 196 189 195 195 177 168 159 157 194 186 171 182 163 158 151 144 134 124 115 106 96 91 86 118 77 87 70 62 10 42 73 82 87 83 85 83
211 209 210 210 208 206 204 205 205 206 209 202 198 187 192 191 184 189 174 169 152 150 147 140 133 127 175 127 112 134 75 83 82 70 62 356 12 76 89 93 97 90 92
217 211 210 209 209 206 204 203 199 202 205 205 204 194 190 186 176 185 172 169 164 167 161 155 155 167 141 137 124 110 105 115 96 95 71 333 333 117 119 117 107 100 98
220 215 208 209 208 207 205 203 204 203 200 197 197 191 185 190 193 191 189 182 179 181 169 172 166 145 136 119 118 116 109 106 92 88 88 339 193 145 140 122 112 115 112
230 222 214 207 207 206 206 205 207 206 204 201 197 194 193 193 192 187 191 190 190 183 183 173 163 156 147 139 133 127 112 97 103 109 92 344 342 119 134 124 127 124 94
235 227 217 213 210 207 209 211 208 207 203 202 200 197 199 196 195 195 192 191 188 188 183 178 170 163 156 156 148 140 130 125 113 115 105 107 3 69 118 123 138 109 102
232 229 219 211 208 213 213 216 213 212 210 206 204 199 196 195 196 191 189 193 194 188 176 168 167 168 166 165 150 147 142 130 127 127 130 133 111 48 109 133 114 110 87
237 228 224 208 207 208 209 210 212 214 213 212 211 207 203 201 196 194 193 189 181 183 187 184 176 172 174 172 161 154 148 145 137 140 142 146 133 116 70 58 71 72 63
249 240 231 217 217 214 213 209 207 209 211 213 211 207 206 203 201 198 194 192 183 180 185 189 186 185 175 168 159 149 143 142 154 154 143 143 118 128 115 79 76 70 74
263 243 235 223 224 218 219 219 217 217 216 216 212 211 204 200 199 202 200 191 184 186 185 185 186 191 184 162 146 146 149 138 153 151 153 148 138 140 144 140 146 86 62
275 257 241 232 225 211 206 208 214 220 214 217 212 209 204 202 199 199 198 194 189 187 188 186 177 176 168 164 138 130 135 162 165 168 172 159 152 153 136 129 128 116 107
326 304 281 262 247 224 218 218 222 225 229 226 222 219 212 204 199 197 195 194 193 187 189 188 179 176 175 184 180 151 171 186 207 198 183 179 165 161 150 146 143 148 143
6 350 324 275 242 225 221 221 226 238 235 217 221 217 215 211 204 200 199 195 195 195 190 188 189 183 174 192 206 187 163 205 156 182 205 195 187 180 168 170 164 158 155
8 354 348 326 288 257 231 226 224 226 235 237 234 227 216 212 207 201 200 197 196 201 200 192 191 197 182 178 198 227 249 122 184 164 204 205 203 203 191 185 172 167 162
21 19 14 5 353 294 240 240 240 240 250 246 238 240 224 218 219 209 203 198 196 195 205 201 190 195 200 185 188 170 206 190 179 153 161 185 209 213 209 196 185 176 174
17 16 15 16 17 348 273 252 251 256 255 251 234 235 231 224 220 212 206 209 206 204 197 200 198 197 196 205 201 191 184 178 186 165 141 167 193 190 197 191 194 180 169